ASTRA 2F

Last updated on Sun Oct 06 2024 00:02:39 GMT+0000 (Coordinated Universal Time)

1 38778U 12051A 24279.30604928 .00000160 00000+0 00000+0 0 9993 2 38778 0.0686 253.3610 0004640 322.0089 297.5282 1.00276577 34921
UTC large
Height (km)
Speed (km/s)
/
Latitude / Longitude
Inclination (degrees)
Orbital Period (minutes)
Azimuth
Elevation
Range (km)
Doppler Factor

Next 0 passes for location: London (51.5072 / 0.1276)

Sorry there are no passes over London.